Location: Sunny Point
(33.0946°N, 85.0574°W)
Time: 07:10:24
(UTC+00:00)

ISS - Pass Details

Date: 25 May 2024
Orbit: 409 x 421 km, 51.6° (Epoch: 13 June)

Event Time Altitude Azimuth Distance (km) Brightness Sun altitude
Rises 03:20:52 0° 321° (NW) 2,366 1.4 -26.9°
Reaches altitude 10° 03:23:06 10° 331° (NNW) 1,496 0.0 -27.1°
Enters shadow 03:24:32 21° 346° (NNW) 996 -1.2 -27.3°
